Location: Long Geng
(2.6167°N, 114.1333°E)
Time: 06:32:36
(UTC+00:00)

H-2A R/B - Pass Details

Date: 14 May 2021
Orbit: 734 x 836 km, 98.2° (Epoch: 13 June)

Event Time Altitude Azimuth Distance (km) Brightness Sun altitude
Rises 12:02:39 0° 190° (S) 3,178 5.1 -23.3°
Reaches altitude 10° 12:05:17 10° 203° (SSW) 2,244 4.4 -23.9°
Maximum altitude 12:09:17 25° 258° (WSW) 1,444 3.9 -24.8°
Drops below altitude 10° 12:13:17 10° 313° (NW) 2,228 5.3 -25.8°
Sets 12:15:54 0° 326° (NNW) 3,151 6.0 -26.4°
